Year,Month,Day,Hour,Minute,Value (Times are PST for temperature in C)
2008,10,09,00,00,3.50
2008,10,09,00,01,3.50
2008,10,09,00,02,3.50
2008,10,09,00,03,3.50
2008,10,09,00,04,3.60
2008,10,09,00,05,3.60
2008,10,09,00,06,3.60
2008,10,09,00,07,3.60
2008,10,09,00,08,3.60
2008,10,09,00,09,3.70
2008,10,09,00,10,3.70
2008,10,09,00,11,3.70
2008,10,09,00,12,3.80
2008,10,09,00,13,3.70
2008,10,09,00,14,3.70
2008,10,09,00,15,3.70
2008,10,09,00,16,3.70
2008,10,09,00,17,3.70
2008,10,09,00,18,3.70
2008,10,09,00,19,3.70
2008,10,09,00,20,3.70
2008,10,09,00,21,3.70
2008,10,09,00,22,3.70
2008,10,09,00,23,3.70
2008,10,09,00,24,3.60
2008,10,09,00,25,3.60
2008,10,09,00,26,3.60
2008,10,09,00,27,3.50
2008,10,09,00,28,3.50
2008,10,09,00,29,3.50
2008,10,09,00,30,3.50
2008,10,09,00,31,3.50
2008,10,09,00,32,3.50
2008,10,09,00,33,3.50
2008,10,09,00,34,3.50
2008,10,09,00,35,3.40
2008,10,09,00,36,3.40
2008,10,09,00,37,3.40
2008,10,09,00,38,3.40
2008,10,09,00,39,3.40
2008,10,09,00,40,3.40
2008,10,09,00,41,3.40
2008,10,09,00,42,3.40
2008,10,09,00,43,3.40
2008,10,09,00,44,3.40
2008,10,09,00,45,3.40
2008,10,09,00,46,3.30
2008,10,09,00,47,3.40
2008,10,09,00,48,3.30
2008,10,09,00,49,3.30
2008,10,09,00,50,3.30
2008,10,09,00,51,3.30
2008,10,09,00,52,3.30
2008,10,09,00,53,3.30
2008,10,09,00,54,3.30
2008,10,09,00,55,3.30
2008,10,09,00,56,3.30
2008,10,09,00,57,3.30
2008,10,09,00,58,3.30
2008,10,09,00,59,3.30
2008,10,09,01,00,3.30
2008,10,09,01,01,3.30
2008,10,09,01,02,3.30
2008,10,09,01,03,3.30
2008,10,09,01,04,3.30
2008,10,09,01,05,3.20
2008,10,09,01,06,3.20
2008,10,09,01,07,3.10
2008,10,09,01,08,3.10
2008,10,09,01,09,3.10
2008,10,09,01,10,3.10
2008,10,09,01,11,3.10
2008,10,09,01,12,3.00
2008,10,09,01,13,2.90
2008,10,09,01,14,2.90
2008,10,09,01,15,3.00
2008,10,09,01,16,3.10
2008,10,09,01,17,3.10
2008,10,09,01,18,3.10
2008,10,09,01,19,3.10
2008,10,09,01,20,3.10
2008,10,09,01,21,3.10
2008,10,09,01,22,3.10
2008,10,09,01,23,3.10
2008,10,09,01,24,3.10
2008,10,09,01,25,3.10
2008,10,09,01,26,3.10
2008,10,09,01,27,3.10
2008,10,09,01,28,3.10
2008,10,09,01,29,3.10
2008,10,09,01,30,3.10
2008,10,09,01,31,3.10
2008,10,09,01,32,3.10
2008,10,09,01,33,3.10
2008,10,09,01,34,3.10
2008,10,09,01,35,3.10
2008,10,09,01,36,3.00
2008,10,09,01,37,2.90
2008,10,09,01,38,2.90
2008,10,09,01,39,2.90
2008,10,09,01,40,2.90
2008,10,09,01,41,2.90
2008,10,09,01,42,2.90
2008,10,09,01,43,2.90
2008,10,09,01,44,2.90
2008,10,09,01,45,2.90
2008,10,09,01,46,2.90
2008,10,09,01,47,2.90
2008,10,09,01,48,3.10
2008,10,09,01,49,3.10
2008,10,09,01,50,3.10
2008,10,09,01,51,3.10
2008,10,09,01,52,3.10
2008,10,09,01,53,3.10
2008,10,09,01,54,3.10
2008,10,09,01,55,3.10
2008,10,09,01,56,3.10
2008,10,09,01,57,3.10
2008,10,09,01,58,3.10
2008,10,09,01,59,3.10
2008,10,09,02,00,3.10
2008,10,09,02,01,3.10
2008,10,09,02,02,3.10
2008,10,09,02,03,3.10
2008,10,09,02,04,3.10
2008,10,09,02,05,3.10
2008,10,09,02,06,3.10
2008,10,09,02,07,3.10
2008,10,09,02,08,3.10
2008,10,09,02,09,3.10
2008,10,09,02,10,3.10
2008,10,09,02,11,3.10
2008,10,09,02,12,3.10
2008,10,09,02,13,3.10
2008,10,09,02,14,3.10
2008,10,09,02,15,3.10
2008,10,09,02,16,3.10
2008,10,09,02,17,3.10
2008,10,09,02,18,3.10
2008,10,09,02,19,3.10
2008,10,09,02,20,3.10
2008,10,09,02,21,3.10
2008,10,09,02,22,3.10
2008,10,09,02,23,3.00
2008,10,09,02,24,2.90
2008,10,09,02,25,2.90
2008,10,09,02,26,2.90
2008,10,09,02,27,2.90
2008,10,09,02,28,2.90
2008,10,09,02,29,2.90
2008,10,09,02,30,2.90
2008,10,09,02,31,2.90
2008,10,09,02,32,2.90
2008,10,09,02,33,2.90
2008,10,09,02,34,2.90
2008,10,09,02,35,2.90
2008,10,09,02,36,2.90
2008,10,09,02,37,2.90
2008,10,09,02,38,2.90
2008,10,09,02,39,2.90
2008,10,09,02,40,2.90
2008,10,09,02,41,2.90
2008,10,09,02,42,2.90
2008,10,09,02,43,2.90
2008,10,09,02,44,2.80
2008,10,09,02,45,2.80
2008,10,09,02,46,2.80
2008,10,09,02,47,2.80
2008,10,09,02,48,2.80
2008,10,09,02,49,2.70
2008,10,09,02,50,2.70
2008,10,09,02,51,2.70
2008,10,09,02,52,2.70
2008,10,09,02,53,2.80
2008,10,09,02,54,2.80
2008,10,09,02,55,2.80
2008,10,09,02,56,2.80
2008,10,09,02,57,2.80
2008,10,09,02,58,2.80
2008,10,09,02,59,2.80
2008,10,09,03,00,2.80
2008,10,09,03,01,2.80
2008,10,09,03,02,2.80
2008,10,09,03,03,2.80
2008,10,09,03,04,2.80
2008,10,09,03,05,2.80
2008,10,09,03,06,2.80
2008,10,09,03,07,2.80
2008,10,09,03,08,2.80
2008,10,09,03,09,2.80
2008,10,09,03,10,2.80
2008,10,09,03,11,2.80
2008,10,09,03,12,2.80
2008,10,09,03,13,2.80
2008,10,09,03,14,2.80
2008,10,09,03,15,2.80
2008,10,09,03,16,2.90
2008,10,09,03,17,2.90
2008,10,09,03,18,2.90
2008,10,09,03,19,2.90
2008,10,09,03,20,2.90
2008,10,09,03,21,2.90
2008,10,09,03,22,2.90
2008,10,09,03,23,2.80
2008,10,09,03,24,2.80
2008,10,09,03,25,2.90
2008,10,09,03,26,2.90
2008,10,09,03,27,2.90
2008,10,09,03,28,2.90
2008,10,09,03,29,2.90
2008,10,09,03,30,2.80
2008,10,09,03,31,2.80
2008,10,09,03,32,2.80
2008,10,09,03,33,2.80
2008,10,09,03,34,2.80
2008,10,09,03,35,2.80
2008,10,09,03,36,2.80
2008,10,09,03,37,2.80
2008,10,09,03,38,2.80
2008,10,09,03,39,2.80
2008,10,09,03,40,2.80
2008,10,09,03,41,2.80
2008,10,09,03,42,2.80
2008,10,09,03,43,2.80
2008,10,09,03,44,2.80
2008,10,09,03,45,2.80
2008,10,09,03,46,2.80
2008,10,09,03,47,2.80
2008,10,09,03,48,2.80
2008,10,09,03,49,2.80
2008,10,09,03,50,2.80
2008,10,09,03,51,2.80
2008,10,09,03,52,2.80
2008,10,09,03,53,2.90
2008,10,09,03,54,2.90
2008,10,09,03,55,2.80
2008,10,09,03,56,2.80
2008,10,09,03,57,2.80
2008,10,09,03,58,2.80
2008,10,09,03,59,2.80
2008,10,09,04,00,2.80
2008,10,09,04,01,2.80
2008,10,09,04,02,2.70
2008,10,09,04,03,2.70
2008,10,09,04,04,2.70
2008,10,09,04,05,2.60
2008,10,09,04,06,2.60
2008,10,09,04,07,2.60
2008,10,09,04,08,2.60
2008,10,09,04,09,2.60
2008,10,09,04,10,2.50
2008,10,09,04,11,2.60
2008,10,09,04,12,2.60
2008,10,09,04,13,2.60
2008,10,09,04,14,2.60
2008,10,09,04,15,2.60
2008,10,09,04,16,2.60
2008,10,09,04,17,2.70
2008,10,09,04,18,2.60
2008,10,09,04,19,2.60
2008,10,09,04,20,2.50
2008,10,09,04,21,2.50
2008,10,09,04,22,2.50
2008,10,09,04,23,2.50
2008,10,09,04,24,2.50
2008,10,09,04,25,2.50
2008,10,09,04,26,2.40
2008,10,09,04,27,2.40
2008,10,09,04,28,2.40
2008,10,09,04,29,2.40
2008,10,09,04,30,2.50
2008,10,09,04,31,2.50
2008,10,09,04,32,2.60
2008,10,09,04,33,2.70
2008,10,09,04,34,2.70
2008,10,09,04,35,2.70
2008,10,09,04,36,2.70
2008,10,09,04,37,2.70
2008,10,09,04,38,2.70
2008,10,09,04,39,2.70
2008,10,09,04,40,2.70
2008,10,09,04,41,2.70
2008,10,09,04,42,2.70
2008,10,09,04,43,2.70
2008,10,09,04,44,2.70
2008,10,09,04,45,2.70
2008,10,09,04,46,2.70
2008,10,09,04,47,2.60
2008,10,09,04,48,2.60
2008,10,09,04,49,2.50
2008,10,09,04,50,2.50
2008,10,09,04,51,2.50
2008,10,09,04,52,2.40
2008,10,09,04,53,2.40
2008,10,09,04,54,2.30
2008,10,09,04,55,2.30
2008,10,09,04,56,2.30
2008,10,09,04,57,2.30
2008,10,09,04,58,2.30
2008,10,09,04,59,2.20
2008,10,09,05,00,2.20
2008,10,09,05,01,2.20
2008,10,09,05,02,2.30
2008,10,09,05,03,2.30
2008,10,09,05,04,2.30
2008,10,09,05,05,2.30
2008,10,09,05,06,2.30
2008,10,09,05,07,2.30
2008,10,09,05,08,2.30
2008,10,09,05,09,2.20
2008,10,09,05,10,2.20
2008,10,09,05,11,2.20
2008,10,09,05,12,2.20
2008,10,09,05,13,2.20
2008,10,09,05,14,2.20
2008,10,09,05,15,2.20
2008,10,09,05,16,2.20
2008,10,09,05,17,2.20
2008,10,09,05,18,2.30
2008,10,09,05,19,2.40
2008,10,09,05,20,2.40
2008,10,09,05,21,2.40
2008,10,09,05,22,2.40
2008,10,09,05,23,2.40
2008,10,09,05,24,2.40
2008,10,09,05,25,2.40
2008,10,09,05,26,2.50
2008,10,09,05,27,2.50
2008,10,09,05,28,2.50
2008,10,09,05,29,2.50
2008,10,09,05,30,2.50
2008,10,09,05,31,2.50
2008,10,09,05,32,2.50
2008,10,09,05,33,2.60
2008,10,09,05,34,2.60
2008,10,09,05,35,2.60
2008,10,09,05,36,2.60
2008,10,09,05,37,2.60
2008,10,09,05,38,2.60
2008,10,09,05,39,2.60
2008,10,09,05,40,2.50
2008,10,09,05,41,2.60
2008,10,09,05,42,2.60
2008,10,09,05,43,2.60
2008,10,09,05,44,2.60
2008,10,09,05,45,2.60
2008,10,09,05,46,2.60
2008,10,09,05,47,2.60
2008,10,09,05,48,2.60
2008,10,09,05,49,2.60
2008,10,09,05,50,2.60
2008,10,09,05,51,2.50
2008,10,09,05,52,2.50
2008,10,09,05,53,2.50
2008,10,09,05,54,2.50
2008,10,09,05,55,2.50
2008,10,09,05,56,2.50
2008,10,09,05,57,2.50
2008,10,09,05,58,2.40
2008,10,09,05,59,2.40
2008,10,09,06,00,2.40
2008,10,09,06,01,2.40
2008,10,09,06,02,2.40
2008,10,09,06,03,2.40
2008,10,09,06,04,2.40
2008,10,09,06,05,2.40
2008,10,09,06,06,2.40
2008,10,09,06,07,2.40
2008,10,09,06,08,2.40
2008,10,09,06,09,2.40
2008,10,09,06,10,2.40
2008,10,09,06,11,2.40
2008,10,09,06,12,2.40
2008,10,09,06,13,2.40
2008,10,09,06,14,2.40
2008,10,09,06,15,2.40
2008,10,09,06,16,2.40
2008,10,09,06,17,2.40
2008,10,09,06,18,2.40
2008,10,09,06,19,2.40
2008,10,09,06,20,2.40
2008,10,09,06,21,2.40
2008,10,09,06,22,2.40
2008,10,09,06,23,2.40
2008,10,09,06,24,2.30
2008,10,09,06,25,2.30
2008,10,09,06,26,2.30
2008,10,09,06,27,2.30
2008,10,09,06,28,2.20
2008,10,09,06,29,2.20
2008,10,09,06,30,2.20
2008,10,09,06,31,2.20
2008,10,09,06,32,2.20
2008,10,09,06,33,2.20
2008,10,09,06,34,2.20
2008,10,09,06,35,2.20
2008,10,09,06,36,2.20
2008,10,09,06,37,2.20
2008,10,09,06,38,2.20
2008,10,09,06,39,2.20
2008,10,09,06,40,2.20
2008,10,09,06,41,2.20
2008,10,09,06,42,2.20
2008,10,09,06,43,2.20
2008,10,09,06,44,2.20
2008,10,09,06,45,2.20
2008,10,09,06,46,2.20
2008,10,09,06,47,2.20
2008,10,09,06,48,2.20
2008,10,09,06,49,2.20
2008,10,09,06,50,2.20
2008,10,09,06,51,2.20
2008,10,09,06,52,2.20
2008,10,09,06,53,2.20
2008,10,09,06,54,2.20
2008,10,09,06,55,2.20
2008,10,09,06,56,2.20
2008,10,09,06,57,2.20
2008,10,09,06,58,2.20
2008,10,09,06,59,2.20
2008,10,09,07,00,2.20
2008,10,09,07,01,2.20
2008,10,09,07,02,2.20
2008,10,09,07,03,2.20
2008,10,09,07,04,2.10
2008,10,09,07,05,2.10
2008,10,09,07,06,2.10
2008,10,09,07,07,2.10
2008,10,09,07,08,2.10
2008,10,09,07,09,2.10
2008,10,09,07,10,2.10
2008,10,09,07,11,2.10
2008,10,09,07,12,2.10
2008,10,09,07,13,2.10
2008,10,09,07,14,2.00
2008,10,09,07,15,2.10
2008,10,09,07,16,2.10
2008,10,09,07,17,2.10
2008,10,09,07,18,2.10
2008,10,09,07,19,2.10
2008,10,09,07,20,2.10
2008,10,09,07,21,2.10
2008,10,09,07,22,2.10
2008,10,09,07,23,2.10
2008,10,09,07,24,2.00
2008,10,09,07,25,2.00
2008,10,09,07,26,2.00
2008,10,09,07,27,2.00
2008,10,09,07,28,2.00
2008,10,09,07,29,1.90
2008,10,09,07,30,1.90
2008,10,09,07,31,1.90
2008,10,09,07,32,1.90
2008,10,09,07,33,1.80
2008,10,09,07,34,1.80
2008,10,09,07,35,1.80
2008,10,09,07,36,1.80
2008,10,09,07,37,1.80
2008,10,09,07,38,1.90
2008,10,09,07,39,2.00
2008,10,09,07,40,2.00
2008,10,09,07,41,2.10
2008,10,09,07,42,2.10
2008,10,09,07,43,2.10
2008,10,09,07,44,2.10
2008,10,09,07,45,2.10
2008,10,09,07,46,2.10
2008,10,09,07,47,2.20
2008,10,09,07,48,2.20
2008,10,09,07,49,2.20
2008,10,09,07,50,2.20
2008,10,09,07,51,2.20
2008,10,09,07,52,2.20
2008,10,09,07,53,2.20
2008,10,09,07,54,2.20
2008,10,09,07,55,2.20
2008,10,09,07,56,2.30
2008,10,09,07,57,2.30
2008,10,09,07,58,2.40
2008,10,09,07,59,2.40
2008,10,09,08,00,2.50
2008,10,09,08,01,2.50
2008,10,09,08,02,2.50
2008,10,09,08,03,2.50
2008,10,09,08,04,2.50
2008,10,09,08,05,2.50
2008,10,09,08,06,2.50
2008,10,09,08,07,2.50
2008,10,09,08,08,2.50
2008,10,09,08,09,2.50
2008,10,09,08,10,2.60
2008,10,09,08,11,2.60
2008,10,09,08,12,2.60
2008,10,09,08,13,2.60
2008,10,09,08,14,2.70
2008,10,09,08,15,2.70
2008,10,09,08,16,2.90
2008,10,09,08,17,3.00
2008,10,09,08,18,3.10
2008,10,09,08,19,3.20
2008,10,09,08,20,3.20
2008,10,09,08,21,3.30
2008,10,09,08,22,3.30
2008,10,09,08,23,3.40
2008,10,09,08,24,3.40
2008,10,09,08,25,3.40
2008,10,09,08,26,3.50
2008,10,09,08,27,3.50
2008,10,09,08,28,3.60
2008,10,09,08,29,3.60
2008,10,09,08,30,3.70
2008,10,09,08,31,3.80
2008,10,09,08,32,3.90
2008,10,09,08,33,4.00
2008,10,09,08,34,4.20
2008,10,09,08,35,4.20
2008,10,09,08,36,4.30
2008,10,09,08,37,4.40
2008,10,09,08,38,4.50
2008,10,09,08,39,4.50
2008,10,09,08,40,4.50
2008,10,09,08,41,4.60
2008,10,09,08,42,4.60
2008,10,09,08,43,4.60
2008,10,09,08,44,4.60
2008,10,09,08,45,4.70
2008,10,09,08,46,4.70
2008,10,09,08,47,4.70
2008,10,09,08,48,4.70
2008,10,09,08,49,4.70
2008,10,09,08,50,4.70
2008,10,09,08,51,4.70
2008,10,09,08,52,4.70
2008,10,09,08,53,4.60
2008,10,09,08,54,4.60
2008,10,09,08,55,4.60
2008,10,09,08,56,4.60
2008,10,09,08,57,4.60
2008,10,09,08,58,4.60
2008,10,09,08,59,4.70
2008,10,09,09,00,4.70
2008,10,09,09,01,4.70
2008,10,09,09,02,4.80
2008,10,09,09,03,4.80
2008,10,09,09,04,4.80
2008,10,09,09,05,4.80
2008,10,09,09,06,4.80
2008,10,09,09,07,4.90
2008,10,09,09,08,4.90
2008,10,09,09,09,4.90
2008,10,09,09,10,4.90
2008,10,09,09,11,4.90
2008,10,09,09,12,4.90
2008,10,09,09,13,5.00
2008,10,09,09,14,5.10
2008,10,09,09,15,5.10
2008,10,09,09,16,5.10
2008,10,09,09,17,5.10
2008,10,09,09,18,5.10
2008,10,09,09,19,5.10
2008,10,09,09,20,5.10
2008,10,09,09,21,5.20
2008,10,09,09,22,5.20
2008,10,09,09,23,5.20
2008,10,09,09,24,5.20
2008,10,09,09,25,5.20
2008,10,09,09,26,5.30
2008,10,09,09,27,5.30
2008,10,09,09,28,5.30
2008,10,09,09,29,5.30
2008,10,09,09,30,5.30
2008,10,09,09,31,5.30
2008,10,09,09,32,5.30
2008,10,09,09,33,5.30
2008,10,09,09,34,5.30
2008,10,09,09,35,5.30
2008,10,09,09,36,5.40
2008,10,09,09,37,5.40
2008,10,09,09,38,5.40
2008,10,09,09,39,5.40
2008,10,09,09,40,5.50
2008,10,09,09,41,5.50
2008,10,09,09,42,5.60
2008,10,09,09,43,5.60
2008,10,09,09,44,5.60
2008,10,09,09,45,5.60
2008,10,09,09,46,5.60
2008,10,09,09,47,5.60
2008,10,09,09,48,5.60
2008,10,09,09,49,5.50
2008,10,09,09,50,5.50
2008,10,09,09,51,5.40
2008,10,09,09,52,5.40
2008,10,09,09,53,5.40
2008,10,09,09,54,5.40
2008,10,09,09,55,5.30
2008,10,09,09,56,5.30
2008,10,09,09,57,5.30
2008,10,09,09,58,5.30
2008,10,09,09,59,5.30
2008,10,09,10,00,5.30
2008,10,09,10,01,5.30
2008,10,09,10,02,5.30
2008,10,09,10,03,5.30
2008,10,09,10,04,5.30
2008,10,09,10,05,5.30
2008,10,09,10,06,5.30
2008,10,09,10,07,5.30
2008,10,09,10,08,5.30
2008,10,09,10,09,5.40
2008,10,09,10,10,5.40
2008,10,09,10,11,5.50
2008,10,09,10,12,5.50
2008,10,09,10,13,5.50
2008,10,09,10,14,5.60
2008,10,09,10,15,5.60
2008,10,09,10,16,5.70
2008,10,09,10,17,5.70
2008,10,09,10,18,5.70
2008,10,09,10,19,5.70
2008,10,09,10,20,5.70
2008,10,09,10,21,5.80
2008,10,09,10,22,5.80
2008,10,09,10,23,5.90
2008,10,09,10,24,6.00
2008,10,09,10,25,6.00
2008,10,09,10,26,6.10
2008,10,09,10,27,6.10
2008,10,09,10,28,6.20
2008,10,09,10,29,6.20
2008,10,09,10,30,6.30
2008,10,09,10,31,6.40
2008,10,09,10,32,6.40
2008,10,09,10,33,6.50
2008,10,09,10,34,6.60
2008,10,09,10,35,6.70
2008,10,09,10,36,6.80
2008,10,09,10,37,6.80
2008,10,09,10,38,6.90
2008,10,09,10,39,7.00
2008,10,09,10,40,7.20
2008,10,09,10,41,7.30
2008,10,09,10,42,7.30
2008,10,09,10,43,7.40
2008,10,09,10,44,7.50
2008,10,09,10,45,7.60
2008,10,09,10,46,7.70
2008,10,09,10,47,7.80
2008,10,09,10,48,7.90
2008,10,09,10,49,8.00
2008,10,09,10,50,8.20
2008,10,09,10,51,8.20
2008,10,09,10,52,8.30
2008,10,09,10,53,8.40
2008,10,09,10,54,8.50
2008,10,09,10,55,8.60
2008,10,09,10,56,8.70
2008,10,09,10,57,8.90
2008,10,09,10,58,8.90
2008,10,09,10,59,8.90
2008,10,09,11,00,8.90
2008,10,09,11,01,9.00
2008,10,09,11,02,9.10
2008,10,09,11,03,9.20
2008,10,09,11,04,9.10
2008,10,09,11,05,9.10
2008,10,09,11,06,9.10
2008,10,09,11,07,9.10
2008,10,09,11,08,9.10
2008,10,09,11,09,9.00
2008,10,09,11,10,9.00
2008,10,09,11,11,9.00
2008,10,09,11,12,9.00
2008,10,09,11,13,9.00
2008,10,09,11,14,9.00
2008,10,09,11,15,9.00
2008,10,09,11,16,9.10
2008,10,09,11,17,9.10
2008,10,09,11,18,9.10
2008,10,09,11,19,9.10
2008,10,09,11,20,9.10
2008,10,09,11,21,9.10
2008,10,09,11,22,9.10
2008,10,09,11,23,9.10
2008,10,09,11,24,9.10
2008,10,09,11,25,9.20
2008,10,09,11,26,9.20
2008,10,09,11,27,9.20
2008,10,09,11,28,9.10
2008,10,09,11,29,9.10
2008,10,09,11,30,9.00
2008,10,09,11,31,9.00
2008,10,09,11,32,9.00
2008,10,09,11,33,9.00
2008,10,09,11,34,9.10
2008,10,09,11,35,9.10
2008,10,09,11,36,9.10
2008,10,09,11,37,9.10
2008,10,09,11,38,9.10
2008,10,09,11,39,9.10
2008,10,09,11,40,9.10
2008,10,09,11,41,9.10
2008,10,09,11,42,9.20
2008,10,09,11,43,9.10
2008,10,09,11,44,9.10
2008,10,09,11,45,9.10
2008,10,09,11,46,9.10
2008,10,09,11,47,9.10
2008,10,09,11,48,9.10
2008,10,09,11,49,9.00
2008,10,09,11,50,9.00
2008,10,09,11,51,9.00
2008,10,09,11,52,9.00
2008,10,09,11,53,9.00
2008,10,09,11,54,9.00
2008,10,09,11,55,9.00
2008,10,09,11,56,8.90
2008,10,09,11,57,8.90
2008,10,09,11,58,8.90
2008,10,09,11,59,8.90
2008,10,09,12,00,8.90
2008,10,09,12,01,8.90
2008,10,09,12,02,8.90
2008,10,09,12,03,8.80
2008,10,09,12,04,8.80
2008,10,09,12,05,8.80
2008,10,09,12,06,8.90
2008,10,09,12,07,8.90
2008,10,09,12,08,8.90
2008,10,09,12,09,8.90
2008,10,09,12,10,8.80
2008,10,09,12,11,8.70
2008,10,09,12,12,8.70
2008,10,09,12,13,8.70
2008,10,09,12,14,8.70
2008,10,09,12,15,8.70
2008,10,09,12,16,8.70
2008,10,09,12,17,8.70
2008,10,09,12,18,8.70
2008,10,09,12,19,8.60
2008,10,09,12,20,8.60
2008,10,09,12,21,8.60
2008,10,09,12,22,8.60
2008,10,09,12,23,8.60
2008,10,09,12,24,8.70
2008,10,09,12,25,8.70
2008,10,09,12,26,8.70
2008,10,09,12,27,8.70
2008,10,09,12,28,8.80
2008,10,09,12,29,8.80
2008,10,09,12,30,8.80
2008,10,09,12,31,8.80
2008,10,09,12,32,8.70
2008,10,09,12,33,8.70
2008,10,09,12,34,8.70
2008,10,09,12,35,8.70
2008,10,09,12,36,8.70
2008,10,09,12,37,8.80
2008,10,09,12,38,8.70
2008,10,09,12,39,8.80
2008,10,09,12,40,8.80
2008,10,09,12,41,8.90
2008,10,09,12,42,8.90
2008,10,09,12,43,8.90
2008,10,09,12,44,8.90
2008,10,09,12,45,8.90
2008,10,09,12,46,8.90
2008,10,09,12,47,8.90
2008,10,09,12,48,8.80
2008,10,09,12,49,8.90
2008,10,09,12,50,8.90
2008,10,09,12,51,8.90
2008,10,09,12,52,8.90
2008,10,09,12,53,8.90
2008,10,09,12,54,8.90
2008,10,09,12,55,8.90
2008,10,09,12,56,8.90
2008,10,09,12,57,8.90
2008,10,09,12,58,8.90
2008,10,09,12,59,8.90
2008,10,09,13,00,8.90
2008,10,09,13,01,8.90
2008,10,09,13,02,8.90
2008,10,09,13,03,8.90
2008,10,09,13,04,8.80
2008,10,09,13,05,8.80
2008,10,09,13,06,8.90
2008,10,09,13,07,8.90
2008,10,09,13,08,8.90
2008,10,09,13,09,8.80
2008,10,09,13,10,8.80
2008,10,09,13,11,8.80
2008,10,09,13,12,8.80
2008,10,09,13,13,8.80
2008,10,09,13,14,8.90
2008,10,09,13,15,8.90
2008,10,09,13,16,8.80
2008,10,09,13,17,8.80
2008,10,09,13,18,8.80
2008,10,09,13,19,8.80
2008,10,09,13,20,8.80
2008,10,09,13,21,8.80
2008,10,09,13,22,8.80
2008,10,09,13,23,8.80
2008,10,09,13,24,8.70
2008,10,09,13,25,8.70
2008,10,09,13,26,8.70
2008,10,09,13,27,8.70
2008,10,09,13,28,8.70
2008,10,09,13,29,8.70
2008,10,09,13,30,8.80
2008,10,09,13,31,8.80
2008,10,09,13,32,8.90
2008,10,09,13,33,8.90
2008,10,09,13,34,8.80
2008,10,09,13,35,8.80
2008,10,09,13,36,8.90
2008,10,09,13,37,8.90
2008,10,09,13,38,8.90
2008,10,09,13,39,8.90
2008,10,09,13,40,8.90
2008,10,09,13,41,9.00
2008,10,09,13,42,9.00
2008,10,09,13,43,9.00
2008,10,09,13,44,9.00
2008,10,09,13,45,9.00
2008,10,09,13,46,9.10
2008,10,09,13,47,9.10
2008,10,09,13,48,9.10
2008,10,09,13,49,9.20
2008,10,09,13,50,9.10
2008,10,09,13,51,9.20
2008,10,09,13,52,9.20
2008,10,09,13,53,9.20
2008,10,09,13,54,9.20
2008,10,09,13,55,9.10
2008,10,09,13,56,9.10
2008,10,09,13,57,9.20
2008,10,09,13,58,9.20
2008,10,09,13,59,9.10
2008,10,09,14,00,9.10
2008,10,09,14,01,9.10
2008,10,09,14,02,9.00
2008,10,09,14,03,9.00
2008,10,09,14,04,8.90
2008,10,09,14,05,8.90
2008,10,09,14,06,8.90
2008,10,09,14,07,8.90
2008,10,09,14,08,8.90
2008,10,09,14,09,8.90
2008,10,09,14,10,8.90
2008,10,09,14,11,8.90
2008,10,09,14,12,8.90
2008,10,09,14,13,8.80
2008,10,09,14,14,8.80
2008,10,09,14,15,8.80
2008,10,09,14,16,8.80
2008,10,09,14,17,8.80
2008,10,09,14,18,8.80
2008,10,09,14,19,8.70
2008,10,09,14,20,8.70
2008,10,09,14,21,8.80
2008,10,09,14,22,8.80
2008,10,09,14,23,8.80
2008,10,09,14,24,9.00
2008,10,09,14,25,9.20
2008,10,09,14,26,9.10
2008,10,09,14,27,9.10
2008,10,09,14,28,9.20
2008,10,09,14,29,9.20
2008,10,09,14,30,9.20
2008,10,09,14,31,9.10
2008,10,09,14,32,9.10
2008,10,09,14,33,9.10
2008,10,09,14,34,9.20
2008,10,09,14,35,9.20
2008,10,09,14,36,9.20
2008,10,09,14,37,9.20
2008,10,09,14,38,9.20
2008,10,09,14,39,9.20
2008,10,09,14,40,9.30
2008,10,09,14,41,9.30
2008,10,09,14,42,9.30
2008,10,09,14,43,9.30
2008,10,09,14,44,9.30
2008,10,09,14,45,9.20
2008,10,09,14,46,9.20
2008,10,09,14,47,9.30
2008,10,09,14,48,9.20
2008,10,09,14,49,9.20
2008,10,09,14,50,9.20
2008,10,09,14,51,9.20
2008,10,09,14,52,9.20
2008,10,09,14,53,9.20
2008,10,09,14,54,9.20
2008,10,09,14,55,9.20
2008,10,09,14,56,9.20
2008,10,09,14,57,9.20
2008,10,09,14,58,9.20
2008,10,09,14,59,9.30
2008,10,09,15,00,9.30
2008,10,09,15,01,9.40
2008,10,09,15,02,9.40
2008,10,09,15,03,9.40
2008,10,09,15,04,9.40
2008,10,09,15,05,9.40
2008,10,09,15,06,9.30
2008,10,09,15,07,9.20
2008,10,09,15,08,9.20
2008,10,09,15,09,9.20
2008,10,09,15,10,9.10
2008,10,09,15,11,9.00
2008,10,09,15,12,8.90
2008,10,09,15,13,8.80
2008,10,09,15,14,8.80
2008,10,09,15,15,8.70
2008,10,09,15,16,8.70
2008,10,09,15,17,8.60
2008,10,09,15,18,8.60
2008,10,09,15,19,8.50
2008,10,09,15,20,8.50
2008,10,09,15,21,8.50
2008,10,09,15,22,8.40
2008,10,09,15,23,8.50
2008,10,09,15,24,8.50
2008,10,09,15,25,8.40
2008,10,09,15,26,8.50
2008,10,09,15,27,8.50
2008,10,09,15,28,8.50
2008,10,09,15,29,8.50
2008,10,09,15,30,8.50
2008,10,09,15,31,8.50
2008,10,09,15,32,8.50
2008,10,09,15,33,8.50
2008,10,09,15,34,8.50
2008,10,09,15,35,8.50
2008,10,09,15,36,8.50
2008,10,09,15,37,8.40
2008,10,09,15,38,8.40
2008,10,09,15,39,8.40
2008,10,09,15,40,8.40
2008,10,09,15,41,8.40
2008,10,09,15,42,8.40
2008,10,09,15,43,8.40
2008,10,09,15,44,8.40
2008,10,09,15,45,8.50
2008,10,09,15,46,8.40
2008,10,09,15,47,8.40
2008,10,09,15,48,8.40
2008,10,09,15,49,8.40
2008,10,09,15,50,8.40
2008,10,09,15,51,8.30
2008,10,09,15,52,8.30
2008,10,09,15,53,8.20
2008,10,09,15,54,8.20
2008,10,09,15,55,8.20
2008,10,09,15,56,8.20
2008,10,09,15,57,8.10
2008,10,09,15,58,8.10
2008,10,09,15,59,8.10
2008,10,09,16,00,8.10
2008,10,09,16,01,8.10
2008,10,09,16,02,8.10
2008,10,09,16,03,8.10
2008,10,09,16,04,8.10
2008,10,09,16,05,8.10
2008,10,09,16,06,8.10
2008,10,09,16,07,8.00
2008,10,09,16,08,8.00
2008,10,09,16,09,8.00
2008,10,09,16,10,8.00
2008,10,09,16,11,8.00
2008,10,09,16,12,8.00
2008,10,09,16,13,8.00
2008,10,09,16,14,8.00
2008,10,09,16,15,8.00
2008,10,09,16,16,7.90
2008,10,09,16,17,7.90
2008,10,09,16,18,7.90
2008,10,09,16,19,7.90
2008,10,09,16,20,7.90
2008,10,09,16,21,7.90
2008,10,09,16,22,7.90
2008,10,09,16,23,7.90
2008,10,09,16,24,7.90
2008,10,09,16,25,7.90
2008,10,09,16,26,7.80
2008,10,09,16,27,7.80
2008,10,09,16,28,7.80
2008,10,09,16,29,7.80
2008,10,09,16,30,7.80
2008,10,09,16,31,7.80
2008,10,09,16,32,7.80
2008,10,09,16,33,7.80
2008,10,09,16,34,7.80
2008,10,09,16,35,7.80
2008,10,09,16,36,7.80
2008,10,09,16,37,7.80
2008,10,09,16,38,7.80
2008,10,09,16,39,7.80
2008,10,09,16,40,7.80
2008,10,09,16,41,7.80
2008,10,09,16,42,7.80
2008,10,09,16,43,7.80
2008,10,09,16,44,7.80
2008,10,09,16,45,7.90
2008,10,09,16,46,7.90
2008,10,09,16,47,7.90
2008,10,09,16,48,7.90
2008,10,09,16,49,7.90
2008,10,09,16,50,7.90
2008,10,09,16,51,7.90
2008,10,09,16,52,7.90
2008,10,09,16,53,7.90
2008,10,09,16,54,7.90
2008,10,09,16,55,7.90
2008,10,09,16,56,7.90
2008,10,09,16,57,7.90
2008,10,09,16,58,7.90
2008,10,09,16,59,7.80
2008,10,09,17,00,7.80
2008,10,09,17,01,7.80
2008,10,09,17,02,7.80
2008,10,09,17,03,7.80
2008,10,09,17,04,7.80
2008,10,09,17,05,7.80
2008,10,09,17,06,7.80
2008,10,09,17,07,7.80
2008,10,09,17,08,7.80
2008,10,09,17,09,7.80
2008,10,09,17,10,7.80
2008,10,09,17,11,7.80
2008,10,09,17,12,7.80
2008,10,09,17,13,7.80
2008,10,09,17,14,7.80
2008,10,09,17,15,7.80
2008,10,09,17,16,7.80
2008,10,09,17,17,7.80
2008,10,09,17,18,7.80
2008,10,09,17,19,7.80
2008,10,09,17,20,7.70
2008,10,09,17,21,7.70
2008,10,09,17,22,7.70
2008,10,09,17,23,7.70
2008,10,09,17,24,7.70
2008,10,09,17,25,7.70
2008,10,09,17,26,7.70
2008,10,09,17,27,7.70
2008,10,09,17,28,7.70
2008,10,09,17,29,7.70
2008,10,09,17,30,7.70
2008,10,09,17,31,7.70
2008,10,09,17,32,7.70
2008,10,09,17,33,7.70
2008,10,09,17,34,7.70
2008,10,09,17,35,7.70
2008,10,09,17,36,7.70
2008,10,09,17,37,7.70
2008,10,09,17,38,7.70
2008,10,09,17,39,7.70
2008,10,09,17,40,7.70
2008,10,09,17,41,7.70
2008,10,09,17,42,7.70
2008,10,09,17,43,7.70
2008,10,09,17,44,7.70
2008,10,09,17,45,7.70
2008,10,09,17,46,7.70
2008,10,09,17,47,7.70
2008,10,09,17,48,7.70
2008,10,09,17,49,7.70
2008,10,09,17,50,7.70
2008,10,09,17,51,7.70
2008,10,09,17,52,7.80
2008,10,09,17,53,7.80
2008,10,09,17,54,7.80
2008,10,09,17,55,7.80
2008,10,09,17,56,7.80
2008,10,09,17,57,7.80
2008,10,09,17,58,7.80
2008,10,09,17,59,7.80
2008,10,09,18,00,7.80
2008,10,09,18,01,7.80
2008,10,09,18,02,7.80
2008,10,09,18,03,7.80
2008,10,09,18,04,7.80
2008,10,09,18,05,7.70
2008,10,09,18,06,7.70